[[{"header":{"parameterUnit":"m.s-1","parameterCategory":1,"la1":30.2991,"la2":30.254,"lo1":-89.0895,"lo2":-89.0444,"dy":0.0017,"dx":0.0017,"nx":28,"ny":28,"refTime":"2025-04-01T03:00:00:Z","depth":0,"parameterNumber":2,"parameterNumberName":"U-component_of_WINDS"},"data":[0,0,0,0,0,0,0,0,0,0,0,0,0,0,0,0,0,0,0,0,0,0,0,0,0,0,0,0,0,0,0,0,0,0,0,0,0,0,0,0,0,0,0,0,0,0,0,0,0,0,0,0,0,0,0,0,0,0,-5.1188,-5.1189,0,-5.1295,-5.1296,-5.1297,-5.124,-5.1237,-5.1234,-5.1231,-5.1341,-5.1346,-5.1352,0,0,0,0,0,0,0,0,0,0,0,0,0,-5.0937,-5.0942,-5.1188,-5.1189,-5.1191,-5.1294,-5.1296,-5.1297,-5.124,-5.1237,-5.1233,-5.123,-5.1339,-5.1345,-5.1352,0,0,0,0,0,0,0,0,0,0,0,0,0,-5.1045,-5.0944,-5.1188,-5.1175,-5.1174,-5.1294,-5.1296,-5.1298,-5.1241,-5.1236,-5.1232,-5.1228,-5.1337,-5.1345,-5.1353,-5.1492,0,0,-5.1379,-5.1382,0,0,0,0,0,0,0,0,-5.1039,-5.1054,-5.1175,-5.1176,-5.1176,-5.1249,-5.1248,-5.1363,-5.1242,-5.1216,-5.1231,-5.1226,-5.1314,-5.1324,-5.1353,-5.1497,-5.1502,-5.138,-5.1385,-5.1388,-5.1391,0,0,0,0,0,0,0,-5.1032,-5.105,-5.123,-5.1177,-5.1177,-5.1164,-5.1175,-5.1269,-5.1288,-5.1218,-5.1214,-5.1227,-5.1313,-5.1345,-5.1355,-5.1503,-5.1379,-5.1387,-5.1392,-5.1395,-5.1767,-5.1771,0,0,0,0,0,0,-5.1025,-5.1044,-5.1227,-5.1233,-5.1095,-5.1172,-5.1184,-5.123,-5.1287,-5.1291,-5.1231,-5.1224,-5.1333,-5.1346,-5.1359,-5.1524,-5.1388,-5.1396,-5.1401,-5.1762,-5.1768,-5.1773,0,0,0,0,0,0,-5.102,-5.1042,-5.1222,-5.1138,-5.116,-5.1181,-5.1233,-5.1235,-5.1266,-5.1296,-5.13,-5.126,-5.133,-5.1347,-5.1459,-5.1527,-5.14,-5.1408,-5.1756,-5.1764,-5.177,-5.1856,0,0,0,0,0,0,-5.1013,-5.104,-5.1092,-5.1139,-5.1164,-5.132,-5.1238,-5.124,-5.1281,-5.1273,-5.1325,-5.1329,-5.1328,-5.1447,-5.1468,-5.1536,-5.1414,-5.175,-5.176,-5.1768,-5.1847,-5.1865,-5.1881,0,0,0,0,0,-5.1004,-5.1112,-5.1095,-5.1117,-5.123,-5.1324,-5.1339,-5.1335,-5.1287,-5.134,-5.1359,-5.1327,-5.1518,-5.1459,-5.1482,-5.1554,-5.1746,-5.1757,-5.1767,-5.1839,-5.1861,-5.188,0,0,0,0,0,0,-5.1072,-5.1118,-5.1099,-5.1226,-5.1272,-5.1314,-5.138,-5.1359,-5.1419,-5.1409,-5.1403,-5.1415,-5.1531,-5.1555,-5.1489,-5.1692,-5.1624,-5.164,-5.1671,-5.1692,-5.1709,-5.1699,-5.1421,0,0,0,0,0,-5.1102,-5.1174,-5.1211,-5.1319,-5.1343,-5.1358,-5.1399,-5.1393,-5.144,-5.1459,-5.1487,-5.1534,-5.1604,-5.165,-5.1717,-5.1852,-5.1862,-5.1913,-5.193,-5.1944,-5.1956,-5.2029,-5.2052,-5.1809,-5.1808,-5.1808,0,0,-5.1163,-5.1198,-5.1244,-5.1334,-5.1368,-5.1443,-5.1375,-5.1457,-5.1513,-5.1472,-5.1578,-5.1601,-5.1654,-5.1777,-5.1834,-5.18,-5.2026,-5.1958,-5.1968,-5.1973,-5.2042,-5.2065,-5.2086,-5.1816,-5.1815,-5.1813,0,0,-5.1314,-5.1348,-5.1441,-5.1478,-5.1532,-5.1542,-5.1565,-5.1612,-5.1625,-5.1732,-5.1703,-5.1771,-5.1892,-5.193,-5.1966,-5.2135,-5.2107,-5.2158,-5.2243,-5.2314,-5.2333,-5.235,-5.2408,-5.243,-5.2171,-5.2171,-5.2171,0,-5.1383,-5.1495,-5.1492,-5.1577,-5.1617,-5.1585,-5.168,-5.1716,-5.1789,-5.1818,-5.178,-5.1933,-5.1966,-5.2098,-5.214,-5.2171,-5.2196,-5.2149,-5.2331,-5.2348,-5.2364,-5.2419,-5.2441,-5.2177,-5.2176,-5.2175,-5.2175,0,-5.1577,-5.1656,-5.1725,-5.1796,-5.1845,-5.1935,-5.1946,-5.1996,-5.1987,-5.2002,-5.2112,-5.2152,-5.2225,-5.2258,-5.225,-5.2389,-5.2367,-5.2331,-5.2262,-5.2392,-5.2444,-5.2465,-5.2184,-5.2182,-5.2181,-5.2179,0,0,-5.1767,-5.1839,-5.1864,-5.1896,-5.1955,-5.2015,-5.2105,-5.2178,-5.222,-5.2273,-5.2347,-5.2453,-5.242,-5.2461,-5.2458,-5.252,-5.265,-5.2477,-5.2478,-5.2505,-5.2805,-5.2828,-5.2853,-5.2635,-5.2639,-5.2642,-5.2799,0,-5.1919,-5.2074,-5.2075,-5.2218,-5.229,-5.2263,-5.2341,-5.2386,-5.2403,-5.2468,-5.2487,-5.2561,-5.2514,-5.2538,-5.2599,-5.2621,-5.2709,-5.2611,-5.2701,-5.2705,-5.2684,-5.288,-5.2905,-5.3051,-5.282,-5.2823,-5.2826,0,-5.2115,-5.2174,-5.2324,-5.2374,-5.2404,-5.2474,-5.2541,-5.2603,-5.2655,-5.2663,-5.271,-5.2699,-5.279,-5.2723,-5.2849,-5.2781,-5.282,-5.2837,-5.2843,-5.2847,-5.277,-5.2887,-5.3098,-5.3119,-5.2858,-5.2856,-5.2853,0,-5.2235,-5.2354,-5.2458,-5.2487,-5.2548,-5.2598,-5.2626,-5.2673,-5.2717,-5.2777,-5.2805,-5.2876,-5.2913,-5.2968,-5.2976,-5.2927,-5.3102,-5.3036,-5.311,-5.311,-5.3144,-5.3141,-5.3361,-5.3176,-5.3176,-5.3176,-5.3175,0,-5.2402,-5.2493,-5.2513,-5.2576,-5.2679,-5.2682,-5.2784,-5.2808,-5.2851,-5.292,-5.2903,-5.2968,-5.2976,-5.3043,-5.3051,-5.3153,-5.3172,-5.318,-5.318,-5.3179,-5.3177,-5.32,-5.3189,-5.3182,-5.318,-5.3179,-5.3178,0,-5.2551,-5.2568,-5.2679,-5.273,-5.2744,-5.2818,-5.286,-5.2922,-5.294,-5.3027,-5.3047,-5.3074,-5.3153,-5.3168,-5.3261,-5.3266,-5.3387,-5.3379,-5.3369,-5.3367,-5.3439,-5.3431,-5.3678,-5.371,-5.3508,-5.351,-5.3512,0,-5.2653,-5.2723,-5.2782,-5.2826,-5.2857,-5.2929,-5.2974,-5.2982,-5.303,-5.3095,-5.3149,-5.3226,-5.3288,-5.3415,-5.3443,-5.3515,-5.3506,-5.3588,-5.3516,-5.3513,-5.3503,-5.3497,-5.3503,-5.36,-5.3602,-5.3604,-5.3605,0,-5.2833,-5.2839,-5.2904,-5.2974,-5.3028,-5.3083,-5.3135,-5.3174,-5.3188,-5.3243,-5.3323,-5.3372,-5.3468,-5.3544,-5.3616,-5.3645,-5.3627,-5.3629,-5.3649,-5.3646,-5.3636,-5.3639,-5.3402,-5.3621,-5.362,-5.3618,-5.3618,-5.3617,-5.2959,-5.302,-5.3071,-5.3145,-5.3186,-5.3236,-5.3296,-5.3322,-5.3389,-5.3466,-5.3468,-5.3556,-5.3608,-5.3703,-5.3738,-5.3806,-5.378,-5.3811,-5.3817,-5.3824,-5.3829,-5.3629,-5.382,-5.382,-5.3819,-5.3819,-5.3819,0,-5.3135,-5.3167,-5.3236,-5.3309,-5.3368,-5.3349,-5.3407,-5.3457,-5.3534,-5.3585,-5.3646,-5.3739,-5.3815,-5.385,-5.3924,-5.3973,-5.3967,-5.3992,-5.3986,-5.3993,-5.385,-5.3823,-5.3995,-5.3995,-5.3995,-5.3995,-5.3995,-5.3995,-5.3232,-5.3334,-5.3347,-5.3469,-5.3501,-5.3586,-5.3621,-5.3667,-5.3707,-5.3812,-5.3874,-5.3897,-5.3942,-5.402,-5.4088,-5.4097,-5.4124,-5.4152,-5.4156,-5.4021,-5.4003,-5.3985,-5.396,-5.4159,-5.4159,-5.4293,-5.4294,-5.4295]},{"header":{"parameterUnit":"m.s-1","parameterCategory":1,"la1":30.2991,"la2":30.254,"lo1":-89.0895,"lo2":-89.0444,"dy":0.0017,"dx":0.0017,"nx":28,"ny":28,"refTime":"2025-04-01T03:00:00:Z","depth":0,"parameterNumber":3,"parameterNumberName":"V-component_of_WINDS"},"data":[0,0,0,0,0,0,0,0,0,0,0,0,0,0,0,0,0,0,0,0,0,0,0,0,0,0,0,0,0,0,0,0,0,0,0,0,0,0,0,0,0,0,0,0,0,0,0,0,0,0,0,0,0,0,0,0,0,0,2.9153,2.9154,0,2.9305,2.9307,2.9309,2.9357,2.9357,2.9356,2.9355,2.9508,2.9513,2.9518,0,0,0,0,0,0,0,0,0,0,0,0,0,2.8902,2.8907,2.9152,2.9154,2.9156,2.9305,2.9307,2.9309,2.9357,2.9356,2.9356,2.9355,2.9507,2.9512,2.9518,0,0,0,0,0,0,0,0,0,0,0,0,0,2.9028,2.8908,2.9152,2.9198,2.9204,2.9304,2.9307,2.931,2.9358,2.9356,2.9355,2.9354,2.9505,2.9512,2.9519,2.9583,0,0,2.954,2.9543,0,0,0,0,0,0,0,0,2.9021,2.9037,2.919,2.9195,2.9202,2.9311,2.9275,2.9401,2.9358,2.9299,2.9355,2.9354,2.9443,2.9455,2.9486,2.959,2.9597,2.9541,2.9545,2.9548,2.955,0,0,0,0,0,0,0,2.9012,2.9031,2.9213,2.9192,2.9199,2.9211,2.9228,2.9299,2.9375,2.9304,2.9308,2.9326,2.9446,2.9479,2.949,2.9599,2.9541,2.9547,2.9551,2.9554,2.9768,2.9769,0,0,0,0,0,0,2.8996,2.9024,2.9208,2.9217,2.9107,2.9217,2.9235,2.9277,2.9374,2.9388,2.9326,2.9327,2.9468,2.9482,2.9496,2.9581,2.9548,2.9555,2.9559,2.9767,2.9768,2.977,0,0,0,0,0,0,2.899,2.9012,2.9202,2.9122,2.9147,2.9222,2.9268,2.9281,2.9314,2.9391,2.9405,2.9346,2.9467,2.9486,2.9562,2.9587,2.9558,2.9565,2.9765,2.9767,2.9769,2.9749,0,0,0,0,0,0,2.8983,2.901,2.9035,2.9122,2.9151,2.9266,2.927,2.9284,2.9326,2.9329,2.9413,2.9426,2.9468,2.9551,2.9569,2.9596,2.957,2.9763,2.9766,2.9769,2.9748,2.975,2.9752,0,0,0,0,0,2.8974,2.9022,2.9036,2.9058,2.9184,2.9267,2.9284,2.9332,2.9328,2.9354,2.9405,2.9424,2.9581,2.9559,2.9579,2.9608,2.9762,2.9765,2.9768,2.9747,2.975,2.9752,0,0,0,0,0,0,2.8933,2.9034,2.9051,2.9128,2.9189,2.9275,2.931,2.9332,2.9395,2.9395,2.945,2.9469,2.9542,2.9583,2.9557,2.9678,2.9672,2.968,2.9649,2.9652,2.9654,2.9644,2.9576,0,0,0,0,0,2.8934,2.8993,2.9077,2.9138,2.9168,2.9233,2.9271,2.9303,2.9368,2.9394,2.945,2.9511,2.9575,2.9616,2.9678,2.9754,2.9774,2.9784,2.9786,2.9787,2.9794,2.984,2.9846,2.9781,2.9781,2.978,0,0,2.8934,2.8997,2.903,2.9131,2.9182,2.9243,2.9255,2.9317,2.9364,2.9403,2.948,2.9523,2.9596,2.9673,2.971,2.9709,2.9816,2.9792,2.9792,2.9798,2.9844,2.985,2.9855,2.9783,2.9782,2.9782,0,0,2.8968,2.902,2.9078,2.9129,2.9207,2.9251,2.9265,2.9349,2.938,2.9458,2.949,2.9545,2.9653,2.9704,2.9745,2.9801,2.9822,2.9819,2.9831,2.9875,2.9881,2.9886,2.9908,2.9915,2.9825,2.9825,2.9825,0,2.8959,2.9052,2.9104,2.9167,2.9211,2.9252,2.9311,2.9358,2.9452,2.9482,2.948,2.9618,2.967,2.9761,2.9775,2.9806,2.9824,2.981,2.9876,2.9881,2.9887,2.9909,2.9917,2.9824,2.9824,2.9825,2.9825,0,2.9039,2.9103,2.914,2.9233,2.9281,2.9341,2.9403,2.9445,2.9474,2.9518,2.9599,2.9662,2.974,2.9764,2.9791,2.986,2.9858,2.9865,2.9861,2.9891,2.9913,2.9922,2.9824,2.9824,2.9824,2.9824,0,0,2.9049,2.9172,2.9185,2.9229,2.9319,2.937,2.9433,2.9511,2.9548,2.9611,2.9667,2.9759,2.9768,2.9813,2.9847,2.9885,2.9929,2.9888,2.9891,2.9896,3.0013,3.0008,3.0017,2.9943,2.9945,2.9947,3.0008,0,2.9096,2.9212,2.9262,2.9355,2.9417,2.9458,2.9513,2.9575,2.9618,2.9677,2.9725,2.979,2.9795,2.9824,2.9864,2.9915,2.9954,2.9911,2.9997,2.9999,2.9979,3.0028,3.0023,3.0077,3.0016,3.0018,3.0019,0,2.9166,2.9233,2.9333,2.9419,2.9447,2.9496,2.9573,2.9629,2.97,2.9729,2.9782,2.9814,2.9883,2.9874,2.997,2.994,2.9978,3.0009,3.0013,3.0024,3.0012,3.0043,3.0096,3.0105,3.0032,3.0031,3.003,0,2.9167,2.9282,2.9358,2.9393,2.9495,2.9529,2.9573,2.9644,2.9689,2.9756,2.9786,2.9859,2.9899,2.9956,3.0007,2.9995,3.01,3.0094,3.0127,3.0126,3.0148,3.0146,3.021,3.0169,3.0169,3.0169,3.0169,0,2.9215,2.9275,2.936,2.9407,2.9476,2.9533,2.96,2.9646,2.971,2.9767,2.9805,2.9857,2.9922,2.9983,3.0023,3.0099,3.0116,3.0142,3.0153,3.014,3.0137,3.0167,3.0165,3.0171,3.0171,3.017,3.017,0,2.9228,2.9287,2.9373,2.9463,2.9488,2.9535,2.9613,2.966,2.9706,2.9778,2.9798,2.9871,2.9945,3.0002,3.0097,3.0125,3.0206,3.0215,3.0182,3.0188,3.0219,3.0216,3.0305,3.0321,3.0267,3.0267,3.0268,0,2.9255,2.9303,2.94,2.9442,2.9486,2.9552,2.9599,2.9657,2.9704,2.9791,2.9829,2.9906,2.9971,3.0088,3.0149,3.0223,3.0236,3.0262,3.0247,3.0234,3.0239,3.0237,3.0243,3.0264,3.0265,3.0265,3.0265,0,2.9299,2.9327,2.9393,2.9471,2.9527,2.959,2.9655,2.9687,2.9756,2.9808,2.9885,2.9936,3.0035,3.0112,3.0193,3.0238,3.0264,3.0269,3.0282,3.027,3.025,3.0264,3.019,3.0267,3.0267,3.0267,3.0267,3.0267,2.9322,2.9368,2.9444,2.9518,2.9573,2.9633,2.9683,2.9737,2.9803,2.989,2.992,3.0,3.0073,3.0185,3.0231,3.0295,3.0296,3.0312,3.0317,3.0321,3.0321,3.0238,3.0309,3.0309,3.0309,3.0309,3.0309,0,2.9369,2.9421,2.9489,2.9579,2.9638,2.9659,2.9732,2.9779,2.985,2.9917,2.9981,3.0071,3.0147,3.0215,3.0294,3.0332,3.0346,3.0351,3.035,3.036,3.0314,3.0297,3.0339,3.0339,3.0339,3.0339,3.0339,3.0339,2.9401,2.9481,2.9518,2.9627,2.9678,2.9759,2.9799,2.9855,2.9909,3.0009,3.0073,3.0117,3.0185,3.027,3.0341,3.0359,3.0387,3.0389,3.041,3.0367,3.0363,3.0359,3.0344,3.0394,3.0394,3.0451,3.0452,3.0452]}]]